QPF
0.00 0.00 0.00 0.00 0.00 0.00 0.00 0.00 0.00 0.00 0.00 0.00 0.00 0.00 0.00 0.00 0.00 0.00 0.00 0.00 0.00 0.00
0.00 0.00 0.00 0.00 0.00 0.00 0.00 0.00 0.00 0.00 0.00 0.00 0.00 0.00 0.00 0.00 0.00 0.00 0.00 0.00 0.00 0.00
0.00 0.00 0.00 0.00 0.00 0.00 0.00 0.00 0.00 0.00 0.00 0.00 0.00 0.00 0.00 0.00 0.00 0.00 0.00 0.00 0.00 0.00
0.00 0.00 0.00 0.00 0.00 0.00 0.00 0.00 0.00 0.00 0.00 0.00 0.00 0.00 0.00 0.00 0.00 0.00 0.00 0.00 0.00 0.00
0.00 0.00 0.00 0.00 0.00 0.00 0.00 0.00 0.00 0.00 0.00 0.00 0.00 0.00 0.00 0.00 0.00 0.00 0.00 0.00 0.00 0.00
0.00 0.00 0.00 0.00 0.00 0.00 0.00 0.00 0.00 0.00 0.00 0.00 0.00 0.00 0.00 0.00 0.00 0.00 0.00 0.00 0.00 0.00
0.00 0.00 0.00 0.00 0.00 0.00 0.00 0.00 0.00 0.00 0.00 0.00 0.00 0.00 0.00 0.00 0.00 0.00 0.00 0.00 0.00 0.00
0.00 0.00 0.00 0.00 0.00 0.00 0.00 0.00 0.00 0.00 0.00 0.00 0.00 0.00 0.00 0.00 0.00 0.00 0.00 0.00 0.00 0.00
0.00 0.00 0.00 0.00 0.00 0.00 0.00 0.00 0.00 0.00 0.00 0.00 0.00 0.00 0.00 0.00 0.00 0.00 0.00 0.00 0.00 0.00
0.00 0.00 0.00 0.00 0.00 0.00 0.00 0.00 0.00 0.00 0.00 0.00 0.00 0.00 0.00 0.00 0.00 0.00 0.01 0.00 0.01 0.01
0.00 0.00 0.00 0.00 0.00 0.00 0.00 0.00 0.00 0.00 0.00 0.00 0.00 0.00 0.00 0.00 0.00 0.00 0.00 0.00 0.00 0.01
0.00 0.00 0.00 0.00 0.00 0.00 0.00 0.00 0.00 0.00 0.00 0.00 0.00 0.00 0.00 0.00 0.00 0.00 0.00 0.00 0.00 0.00
0.00 0.00 0.00 0.00 0.00 0.00 0.00 0.00 0.00 0.00 0.00 0.00 0.00 0.00 0.00 0.00 0.00 0.00 0.00 0.00 0.00 0.00
0.00 0.00 0.00 0.00 0.00 0.00 0.00 0.00 0.00 0.00 0.00 0.00 0.00 0.00 0.00 0.00 0.00 0.00 0.00 0.00 0.00 0.00
MSLP
1007.99 1008.51 1008.72 1009.31 1009.70 1009.87 1010.04 1009.83 1009.45 1009.60 1009.91 1010.16 1010.38 1010.52 1010.64 1011.04 1011.04 1010.96 1010.95 1010.67 1010.69 1010.33
1008.53 1009.09 1009.30 1009.62 1009.69 1009.82 1009.82 1010.01 1009.91 1010.16 1010.56 1010.57 1010.53 1010.63 1010.81 1010.83 1010.89 1010.83 1010.49 1010.32 1010.43 1010.28
1008.87 1009.19 1009.60 1009.81 1010.18 1010.26 1010.33 1010.52 1010.36 1010.33 1010.36 1010.01 1010.34 1010.55 1010.53 1010.80 1010.62 1010.36 1010.31 1010.23 1010.21 1009.94
1009.42 1009.59 1009.91 1010.19 1010.31 1010.42 1010.50 1010.28 1010.19 1010.30 1010.32 1010.20 1010.05 1010.28 1010.27 1010.23 1010.06 1009.95 1009.82 1009.74 1009.48 1009.30
1009.75 1010.06 1010.19 1010.20 1010.42 1010.31 1010.41 1010.35 1010.25 1009.83 1009.88 1009.55 1009.75 1009.74 1009.78 1009.55 1009.63 1009.26 1009.18 1009.06 1008.83 1008.64
1009.88 1010.11 1010.20 1010.33 1010.27 1010.18 1010.08 1009.91 1009.77 1009.58 1009.53 1009.39 1009.50 1009.18 1009.19 1009.10 1008.84 1008.68 1008.69 1008.90 1008.64 1008.64
1009.94 1010.11 1010.01 1010.00 1009.92 1009.89 1009.87 1009.86 1009.86 1009.80 1009.52 1009.46 1009.22 1009.07 1008.94 1008.73 1008.59 1008.63 1008.53 1008.44 1008.30 1008.28
1010.20 1010.13 1010.08 1009.97 1009.83 1009.70 1009.76 1009.79 1009.74 1009.58 1009.31 1009.09 1009.02 1008.84 1008.75 1008.84 1008.79 1008.54 1008.18 1007.95 1007.93 1007.67
1010.12 1010.02 1009.95 1009.80 1009.63 1009.59 1009.66 1009.67 1009.51 1009.29 1009.04 1009.02 1009.01 1008.82 1008.81 1008.73 1008.48 1008.29 1007.98 1007.69 1007.28 1006.79
1010.45 1010.42 1010.30 1010.20 1010.13 1010.08 1009.99 1009.71 1009.33 1009.08 1008.89 1008.88 1008.79 1008.59 1008.48 1008.31 1008.16 1007.97 1007.44 1006.94 1006.31 1005.84
1011.11 1011.00 1010.87 1010.77 1010.67 1010.51 1010.21 1009.74 1009.16 1008.84 1008.73 1008.61 1008.33 1008.25 1008.07 1007.81 1007.68 1007.12 1006.47 1005.99 1005.39 1004.84
1011.93 1011.71 1011.46 1011.22 1011.00 1010.73 1010.37 1009.81 1009.18 1008.79 1008.51 1008.20 1007.94 1007.83 1007.51 1007.29 1006.79 1006.17 1005.57 1004.92 1004.46 1004.05
1012.49 1012.13 1011.78 1011.45 1011.16 1010.84 1010.51 1009.70 1008.93 1008.47 1008.09 1007.90 1007.61 1007.29 1006.72 1006.36 1005.86 1005.31 1004.81 1004.42 1003.63 1002.91
1012.80 1012.27 1011.92 1011.33 1011.07 1010.65 1009.91 1009.32 1008.88 1008.32 1007.83 1007.42 1007.27 1006.57 1005.77 1005.36 1005.26 1004.98 1004.52 1003.73 1002.79 1001.90
Thickness
5677 5674 5674 5669 5666 5663 5661 5663 5670 5666 5663 5660 5656 5654 5654 5649 5649 5647 5644 5646 5643 5645
5668 5663 5662 5659 5658 5656 5657 5654 5654 5652 5647 5646 5646 5643 5640 5639 5635 5633 5635 5634 5630 5629
5660 5657 5654 5652 5646 5646 5643 5641 5642 5641 5640 5643 5637 5632 5630 5623 5623 5622 5620 5618 5616 5618
5647 5646 5642 5639 5637 5634 5632 5634 5633 5629 5626 5626 5627 5621 5618 5615 5615 5612 5611 5609 5608 5607
5635 5631 5629 5627 5624 5625 5623 5621 5621 5624 5622 5624 5617 5613 5608 5608 5604 5606 5602 5600 5599 5599
5623 5621 5620 5618 5618 5617 5617 5616 5617 5616 5613 5612 5607 5606 5601 5598 5596 5595 5592 5586 5587 5584
5612 5610 5610 5609 5609 5608 5607 5605 5603 5600 5599 5595 5593 5591 5590 5589 5587 5582 5580 5578 5576 5572
5600 5600 5599 5598 5599 5599 5597 5595 5592 5590 5589 5586 5584 5582 5579 5573 5570 5569 5569 5567 5562 5559
5591 5591 5590 5590 5590 5589 5587 5583 5581 5579 5577 5573 5571 5568 5563 5560 5559 5557 5554 5550 5548 5545
5579 5578 5577 5576 5574 5572 5570 5569 5569 5568 5566 5564 5562 5559 5555 5552 5549 5543 5541 5537 5534 5531
5563 5562 5561 5559 5557 5556 5556 5557 5560 5560 5558 5556 5555 5549 5545 5541 5536 5534 5531 5527 5523 5519
5545 5546 5545 5545 5543 5542 5543 5546 5550 5551 5550 5548 5546 5540 5536 5530 5530 5528 5524 5519 5514 5508
5531 5532 5532 5532 5531 5532 5533 5539 5544 5544 5543 5539 5536 5533 5529 5526 5526 5523 5518 5511 5510 5508
5519 5521 5521 5524 5524 5527 5533 5536 5535 5536 5535 5532 5527 5528 5526 5523 5520 5515 5512 5512 5512 5512